This demonstration page uses our WeatherBlox Daily Observations layout. Learn more.

Left ArrowRight Arrow

Hourly Observations for November 22, 2020

Temp ( °F °C ) Dew Point ( °F °C ) Humidity (%) Winds ( mph kmh ) Pressure ( in mb ) Visibility ( mi km ) Precip ( " mm )
12:02 am 00:02 Clear with Light Wintry Mix 28 -2 28 -2 100 100 SW 5 7 30.45 1031 4 6 0.00 0.00
12:43 am 00:43 Clear with Mist and Fog 30 -1 28 -2 93 93 SW 6 9 30.44 1031 2 3 0.00 0.00
12:54 am 00:54 Clear with Mist and Fog 30 -1 28 -2 93 93 SW 6 9 30.44 1031 4 6 0.00 0.00
12:56 am 00:56 Clear 31 -0.6 29 -1.7 92 92 SW 6 9 30.38 1029 7 11 0.00 0.00
1:56 am 01:56 Clear 30 -1.1 29 -1.7 96 96 WSW 7 11 30.38 1029 10 16 0.00 0.00
2:56 am 02:56 Clear 30 -1.1 29 -1.7 96 96 W 8 13 30.40 1029 10 16 0.00 0.00
3:56 am 03:56 Clear 28 -2.2 27 -2.8 96 96 WNW 10 17 30.39 1029 10 16 0.00 0.00
4:56 am 04:56 Clear 27 -2.8 25 -3.9 92 92 WNW 8 13 30.39 1029 10 16 0.00 0.00
5:56 am 05:56 Clear 26 -3.3 25 -3.9 96 96 NW 10 17 30.42 1030 10 16 0.00 0.00
6:56 am 06:56 Clear 24 -4.4 22 -5.6 91 91 WNW 10 17 30.43 1030 10 16 0.00 0.00
7:56 am 07:56 Sunny 25 -3.9 23 -5 92 92 WNW 9 15 30.45 1031 10 16 0.00 0.00
8:56 am 08:56 Sunny 34 1.1 31 -0.6 89 89 WNW 9 15 30.46 1032 10 16 0.00 0.00
9:56 am 09:56 Sunny 37 2.8 25 -3.9 62 62 WNW 14 22 30.46 1032 10 16 0.00 0.00
10:56 am 10:56 Sunny 43 6.1 24 -4.4 47 47 NW 20 31 30.45 1031 10 16 0.00 0.00
11:56 am 11:56 Sunny 47 8.3 23 -5 39 39 NW 15 24 30.44 1031 10 16 0.00 0.00
12:56 pm 12:56 Sunny 49 9.4 19 -7.2 31 31 NW 20 31 30.40 1030 10 16 0.00 0.00
1:56 pm 13:56 Sunny 50 10 18 -7.8 28 28 NNW 14 22 30.39 1029 10 16 0.00 0.00
2:56 pm 14:56 Sunny 50 10 15 -9.4 25 25 NNW 10 17 30.37 1028 10 16 0.00 0.00
3:56 pm 15:56 Sunny 50 10 15 -9.4 25 25 NW 9 15 30.36 1028 10 16 0.00 0.00
4:56 pm 16:56 Sunny 47 8.3 16 -8.9 29 29 NNW 5 7 30.37 1029 10 16 0.00 0.00
5:56 pm 17:56 Clear 42 5.6 15 -9.4 33 33 N 3 6 30.37 1029 10 16 0.00 0.00
6:56 pm 18:56 Clear 35 1.7 15 -9.4 44 44 Calm 30.38 1029 10 16 0.00 0.00
7:56 pm 19:56 Clear 36 2.2 16 -8.9 44 44 SSW 3 6 30.38 1029 10 16 0.00 0.00
8:56 pm 20:56 Clear 32 0 16 -8.9 52 52 S 5 7 30.37 1028 10 16 0.00 0.00
9:56 pm 21:56 Clear 29 -1.7 17 -8.3 61 61 Calm 30.35 1028 10 16 0.00 0.00
10:56 pm 22:56 Clear 27 -2.8 18 -7.8 69 69 S 3 6 30.34 1028 10 16 0.00 0.00
11:56 pm 23:56 Clear 21 -6.1 13 -10.6 71 71 SE 5 7 30.32 1027 10 16 0.00 0.00

Powered by AerisWeather